Regional Weather Roundup
Issued by NWS Green Bay, WI

Home | Current Version | Previous Version | Text Only | Print | Product List | Glossary On
Versions: 1 2 3 4 5 6 7 8 9 10 11 12 13 14 15 16 17 18 19 20 21 22 23 24 25 26 27 28 29 30 31 32 33 34 35 36 37 38 39 40 41 42 43 44 45 46 47 48 49 50
000
ASUS43 KGRB 271059
RWRGRB

NORTH-CENTRAL AND NORTHEAST WISCONSIN REGIONAL WEATHER ROUNDUP
NATIONAL WEATHER SERVICE GREEN BAY WI
600 AM CDT MON APR 27 2015

WIZ005-009-010>012-018-019-271200-
NORTH CENTRAL WISCONSIN

CITY           SKY/WX    TMP DP  RH WIND       PRES   REMARKS
IRONWOOD       CLEAR     27  25  93 CALM      30.17R
MANITOWISH WTR NOT AVBL
ARBOR VITAE    NOT AVBL
EAGLE RIVER    NOT AVBL
LAND O LAKES   NOT AVBL
RHINELANDER    CLEAR     34  26  72 NW5       30.15R
PHILLIPS       CLEAR     28  25  89 CALM      30.17R
ANTIGO         NOT AVBL
TOMAHAWK       NOT AVBL
MERRILL        NOT AVBL
$$

WIZ013-073-271200-
NORTHEAST WISCONSIN

CITY           SKY/WX    TMP DP  RH WIND       PRES   REMARKS
IRON MOUNTAIN  CLEAR     33  26  75 NW7       30.11R
MARINETTE      CLEAR     36  27  69 NW7       30.10S
$$

WIZ017-030-035>037-045-271200-
CENTRAL WISCONSIN

CITY           SKY/WX    TMP DP  RH WIND       PRES   REMARKS
MEDFORD        NOT AVBL
WAUSAU         CLEAR     36  30  79 NW9       30.14R
MOSINEE        CLEAR     34  30  86 NW8       30.15R
MARSHFIELD     CLEAR     33  29  85 NW7       30.16R
WISC RAPIDS    CLEAR     34  27  75 CALM      30.16R
STEVENS POINT  NOT AVBL
WAUPACA        CLEAR     36  29  76 NW3       30.13R
SHAWANO        NOT AVBL
CLINTONVILLE   CLEAR     34  28  80 NW3       30.12R
$$

WIZ038-039-048-051-271200-
FOX VALLEY

CITY           SKY/WX    TMP DP  RH WIND       PRES   REMARKS
NWS GREEN BAY  CLEAR     38  29  70 NW7       30.11R
APPLETON       CLEAR     37  28  70 NW8       30.12R
OSHKOSH        CLEAR     39  30  70 NW6       30.11R
FOND DU LAC    CLEAR     35  30  82 NW8       30.11R
$$

WIZ022-050-052-271200-
EAST CENTRAL WISCONSIN

CITY           SKY/WX    TMP DP  RH WIND       PRES   REMARKS
STURGEON BAY   CLEAR     37  28  70 N8        30.12R
MANITOWOC      NOT AVBL
SHEBOYGAN      CLEAR     38  30  73 NW8       30.09R
$$

LMZ563-521-522-541>543-271200-
LAKESHORE

STATION/POSITION TIME  TEMP    WIND        PRES    VSBY  WAVE
                       AIR SEA DIR/SP/G                  HT/PER
                 (UTC) (F)     (DEG/KT/KT) (MB)    (MI)  (FT/S)
SHEBOYGAN LKSHOR 1000   43     330/ 11/ 14 1019.2F
KEWAUNEE LKSHORE 1000   39     330/  9/ 11 1018.0S
NORTHPORT PIER   1000   40     320/ 10/ 13 1018.6S
SISTER BAY LKSHO 1000   39      10/ 10/ 11   N/A
CHAMBERS ISLAND  1000   38     310/  5/  7 1019.3S
MENOMINEE LKSHOR 1000   40     310/  8/ 11 1019.8R
$$



USA.gov is the U.S. government's official web portal to all federal, state and local government web resources and services.